This is the latest recevied weather packets stored in our database for station/object KC4GS-13. If no packets are shown the sender has not sent any weather packets the latest 10 day(s).
| Time | Temp. | Humidity | Pressure | Rain* | Wind** | Luminosity | Snow |
|---|---|---|---|---|---|---|---|
| 1787404748 | 23.89° C | 92% | 1017.6 hPa | 0 mm | - | 105 W/m² | - |
| 1787404443 | 23.89° C | 93% | 1017.6 hPa | 0 mm | - | 152 W/m² | - |
| 1787404138 | 23.89° C | 94% | 1017.6 hPa | 0 mm | - | 180 W/m² | - |
| 1787403833 | 23.89° C | 94% | 1017.9 hPa | 0 mm | - | 159 W/m² | - |
| 1787403532 | 23.33° C | 95% | 1017.7 hPa | 0 mm | - | 160 W/m² | - |
| 1787403228 | 23.33° C | 95% | 1017.7 hPa | 0 mm | - | 126 W/m² | - |
| 1787402924 | 23.33° C | 96% | 1017.6 hPa | 0 mm | - | 114 W/m² | - |
| 1787402619 | 22.78° C | 96% | 1017.8 hPa | 0 mm | - | 116 W/m² | - |
| 1787402318 | 22.78° C | 96% | 1017.6 hPa | 0 mm | - | 103 W/m² | - |
| 1787402014 | 22.78° C | 96% | 1017.7 hPa | 0 mm | - | 95 W/m² | - |
| 1787401709 | 22.78° C | 97% | 1017.8 hPa | 0 mm | - | 75 W/m² | - |
| 1787401405 | 22.78° C | 97% | 1017.7 hPa | 0 mm | - | 69 W/m² | - |
| 1787401100 | 22.78° C | 97% | 1017.6 hPa | 0 mm | - | 61 W/m² | - |
| 1787400796 | 22.78° C | 97% | 1017.7 hPa | 0 mm | - | 57 W/m² | - |
| 1787400495 | 22.78° C | 97% | 1017.8 hPa | 0 mm | - | 50 W/m² | - |
| 1787400192 | 22.78° C | 97% | 1017.7 hPa | 0 mm | - | 35 W/m² | - |
| 1787399888 | 22.78° C | 97% | 1017.7 hPa | 0 mm | - | 35 W/m² | - |
| 1787399584 | 22.78° C | 97% | 1017.5 hPa | 0 mm | - | 32 W/m² | - |
| 1787399283 | 22.22° C | 97% | 1017.4 hPa | 0 mm | - | 28 W/m² | - |
| 1787398978 | 22.22° C | 97% | 1017.4 hPa | 0 mm | - | 21 W/m² | - |
| 1787398673 | 22.22° C | 97% | 1017.4 hPa | 0 mm | - | 18 W/m² | - |
| 1787398370 | 22.22° C | 97% | 1017.3 hPa | 0 mm | - | 21 W/m² | - |
| 1787398065 | 22.22° C | 97% | 1017.1 hPa | 0 mm | - | 21 W/m² | - |
| 1787397764 | 22.22° C | 97% | 1017 hPa | 0 mm | - | 15 W/m² | - |
| 1787397460 | 22.22° C | 96% | 1017 hPa | 0 mm | - | 10 W/m² | - |
* Rain latest hour (hover to see other rain measurements)
** Current wind speed in m/s (hover to see current wind gust speed)